Location: Newark
(36.0797°N, 3.9744°E)
Time: 05:02:41
(UTC+00:00)

Vanguard 2 - Pass Details

Date: 11 December 2019
Orbit: 553 x 2938 km, 32.9° (Epoch: 19 January)

Event Time Altitude Azimuth Distance (km) Brightness Sun altitude
Exits shadow 06:11:19 - 280° (W) 6,189 11.5 -6.9°
Reaches altitude 10° 06:13:15 10° 279° (W) 5,769 11.3 -6.5°
Maximum altitude 06:30:07 55° 208° (SSW) 2,914 10.5 -3.4°
Drops below altitude 10° 06:42:22 10° 135° (SE) 4,301 13.0 -1.2°
Sets 06:45:19 0° 130° (SE) 5,012 13.9 -0.7°
